Temperature
2 2 2 3 3 3 3 3 3 4 4 4 4 4 4 4 4 4 4 4 4 5 5 5 5 5 5 5 5 5 5 5 5 5 6 6 6 6 6 6 6 7 7
1 1 2 2 2 2 3 3 3 3 3 3 3 3 3 3 3 3 4 4 4 4 4 4 4 4 4 4 4 4 4 5 4 4 4 5 5 5 6 6 6 6 6
1 1 1 1 2 2 2 2 2 2 2 2 2 2 2 3 3 3 3 3 3 3 3 3 3 4 4 4 4 4 4 4 4 4 3 4 4 4 4 5 5 5 5
0 0 1 1 1 1 1 1 1 1 1 1 1 1 1 1 2 2 2 2 2 2 2 3 3 3 3 3 3 3 3 3 3 3 3 3 3 3 3 4 4 4 5
-0 -0 -0 0 0 0 0 0 0 0 0 0 0 0 0 1 1 1 1 1 2 2 2 2 2 2 2 2 2 2 2 3 2 3 2 3 2 2 2 3 3 4 4
-1 -1 -1 -1 -0 -0 -0 -0 -0 -0 -0 -0 -0 -0 -0 -0 0 0 0 1 1 1 1 1 1 1 2 2 2 2 2 2 2 2 2 2 2 2 2 2 2 3 3
-1 -1 -1 -1 -1 -1 -1 -1 -1 -1 -1 -1 -1 -1 -1 -1 -1 -1 -0 -0 0 0 0 0 1 1 1 1 1 1 1 1 1 1 1 1 1 1 1 1 1 1 2
-2 -2 -2 -2 -2 -2 -2 -2 -2 -2 -2 -2 -2 -2 -2 -2 -1 -1 -1 -1 -1 -1 -0 -0 -0 -0 -0 0 0 0 0 0 0 0 0 0 0 0 0 0 0 0 0
-3 -2 -2 -2 -2 -2 -2 -2 -3 -3 -3 -3 -3 -3 -3 -2 -2 -2 -2 -2 -2 -2 -1 -1 -1 -1 -1 -1 -1 -0 -0 -0 -0 -0 -0 -0 -0 -1 -0 -0 -0 -1 -1
-3 -3 -3 -3 -3 -3 -3 -3 -3 -3 -3 -3 -3 -3 -3 -3 -3 -3 -3 -3 -3 -3 -2 -2 -2 -1 -1 -1 -1 -1 -1 -1 -1 -1 -1 -1 -1 -1 -1 -1 -1 -1 -1
-3 -3 -3 -3 -3 -4 -4 -4 -4 -4 -4 -4 -4 -4 -4 -4 -4 -4 -4 -4 -4 -3 -3 -3 -3 -2 -2 -2 -2 -2 -2 -2 -2 -2 -1 -1 -1 -1 -1 -1 -1 -1 -2
-4 -4 -4 -4 -4 -4 -4 -4 -5 -5 -5 -5 -5 -5 -5 -5 -4 -4 -4 -4 -4 -4 -4 -4 -3 -3 -3 -3 -3 -3 -3 -2 -2 -2 -2 -2 -2 -2 -2 -2 -2 -2 -2
-4 -4 -4 -4 -4 -5 -5 -5 -5 -5 -5 -5 -5 -5 -5 -5 -5 -5 -5 -5 -5 -5 -4 -4 -4 -4 -4 -4 -4 -4 -3 -3 -3 -3 -3 -3 -3 -2 -2 -2 -2 -2 -3
-5 -5 -5 -5 -5 -5 -5 -5 -5 -6 -6 -6 -6 -6 -6 -6 -6 -6 -6 -6 -6 -5 -5 -5 -5 -5 -5 -5 -5 -4 -4 -4 -4 -4 -3 -3 -3 -3 -3 -3 -3 -3 -3
-6 -6 -6 -6 -6 -6 -6 -6 -6 -6 -6 -6 -6 -6 -6 -6 -6 -6 -6 -6 -6 -6 -6 -6 -6 -6 -6 -5 -5 -5 -5 -5 -5 -4 -4 -4 -4 -4 -4 -4 -4 -4 -4
-6 -6 -6 -6 -6 -6 -6 -6 -6 -6 -7 -7 -7 -7 -7 -7 -7 -7 -7 -7 -7 -7 -7 -7 -6 -6 -6 -6 -6 -6 -6 -6 -5 -5 -5 -5 -4 -4 -4 -4 -4 -4 -4
-6 -6 -6 -7 -7 -7 -7 -7 -7 -7 -7 -7 -7 -7 -7 -7 -7 -7 -7 -7 -7 -7 -7 -7 -7 -7 -7 -7 -7 -7 -7 -6 -6 -6 -6 -5 -5 -5 -5 -5 -5 -5 -5
-7 -7 -7 -7 -7 -7 -7 -7 -7 -7 -8 -8 -8 -8 -8 -8 -8 -8 -8 -8 -8 -8 -8 -8 -8 -8 -7 -8 -8 -7 -7 -7 -7 -7 -6 -6 -6 -6 -6 -6 -6 -5 -5
-7 -7 -7 -7 -8 -8 -8 -8 -8 -8 -8 -8 -8 -8 -8 -8 -8 -8 -8 -9 -9 -8 -8 -8 -8 -8 -8 -8 -8 -8 -8 -8 -8 -7 -7 -7 -7 -7 -7 -7 -6 -6 -6
-8 -8 -8 -8 -8 -8 -8 -9 -9 -9 -9 -9 -9 -9 -9 -9 -9 -9 -9 -9 -9 -9 -9 -9 -9 -9 -9 -9 -9 -9 -9 -9 -8 -8 -8 -8 -8 -8 -7 -7 -7 -7 -6
-8 -8 -8 -8 -8 -9 -9 -9 -9 -9 -9 -9 -10 -10 -9 -9 -9 -10 -10 -10 -10 -9 -9 -9 -9 -9 -9 -9 -9 -9 -10 -10 -9 -9 -9 -9 -8 -8 -8 -8 -8 -8 -7
-8 -8 -9 -9 -9 -9 -9 -9 -9 -10 -10 -10 -10 -10 -10 -10 -10 -10 -10 -10 -10 -10 -10 -10 -10 -10 -10 -10 -10 -10 -10 -10 -10 -10 -9 -9 -9 -9 -8 -8 -8 -8 -8
-9 -9 -9 -9 -9 -10 -10 -10 -10 -10 -10 -10 -10 -10 -10 -10 -11 -11 -11 -11 -11 -11 -11 -11 -11 -10 -10 -10 -10 -10 -10 -10 -10 -10 -10 -10 -9 -9 -9 -9 -9 -8 -8
-9 -9 -9 -9 -9 -10 -10 -10 -10 -10 -11 -10 -10 -11 -11 -11 -11 -11 -11 -11 -11 -11 -11 -12 -12 -12 -11 -11 -11 -11 -11 -11 -10 -10 -10 -10 -10 -10 -10 -9 -9 -9 -9
-10 -10 -10 -10 -10 -10 -10 -11 -11 -11 -11 -11 -11 -11 -11 -11 -11 -11 -11 -12 -12 -12 -12 -12 -13 -12 -12 -12 -12 -12 -11 -11 -11 -11 -10 -10 -10 -10 -10 -10 -10 -10 -9
-10 -10 -10 -10 -10 -11 -11 -11 -11 -11 -11 -11 -11 -11 -11 -11 -11 -11 -11 -12 -12 -12 -12 -13 -13 -13 -13 -13 -12 -12 -12 -12 -11 -11 -11 -11 -11 -11 -11 -11 -10 -10 -10
Wind_Speed
1 2 3 3 4 5 5 5 5 5 4 3 2 2 2 3 3 4 5 6 6 5 3 2 2 2 0 0 0 1 2 2 2 1 2 2 2 2 2 2 2 3 4
1 2 3 4 4 4 4 4 4 4 4 3 2 1 2 1 2 4 5 6 5 5 3 3 2 2 1 0 0 1 1 1 1 1 1 2 2 2 2 2 2 3 3
1 1 2 3 3 4 4 4 4 4 4 4 3 3 3 2 3 4 4 6 6 5 4 3 2 2 1 1 1 1 1 1 0 1 1 1 2 2 2 2 2 2 2
1 0 1 2 2 3 3 4 4 4 4 4 4 3 2 2 3 3 4 6 7 6 5 4 3 2 1 1 1 0 1 2 1 1 1 1 1 1 2 2 2 2 2
1 1 0 0 1 2 3 3 4 5 5 5 4 3 3 2 3 4 4 4 5 6 6 5 4 3 2 1 1 1 1 1 2 2 1 0 0 1 1 3 3 2 2
1 0 1 1 2 3 3 4 4 5 5 5 4 3 3 3 4 5 5 4 4 5 7 6 4 4 3 2 2 1 1 2 2 2 2 1 1 1 1 2 3 3 3
2 1 0 1 2 2 3 3 4 4 4 4 4 4 3 3 3 4 4 5 4 4 5 6 5 5 4 3 2 2 2 2 2 3 3 3 2 2 2 2 3 3 3
1 1 1 1 1 2 3 3 3 3 4 4 4 4 4 3 3 4 4 4 4 4 6 6 5 5 5 4 3 2 2 2 3 3 3 3 3 3 3 3 2 3 3
1 1 1 1 2 2 2 3 3 4 4 4 4 4 4 4 4 4 4 4 5 6 6 6 5 5 5 4 3 3 3 3 3 3 3 4 3 3 3 3 3 3 4
1 2 2 2 2 2 2 3 3 3 4 4 4 4 4 4 4 4 5 5 6 6 6 6 6 5 5 4 3 3 4 3 3 3 3 4 3 3 3 4 4 4 5
2 2 2 3 2 2 2 3 3 3 4 4 4 4 4 4 4 4 4 5 5 6 6 6 6 6 5 5 4 4 4 4 4 4 4 5 4 4 4 4 4 5 5
2 2 2 2 3 3 3 3 3 3 4 4 4 4 4 4 4 5 5 5 5 6 6 6 6 6 6 5 5 5 4 4 5 5 5 6 5 5 4 4 5 5 5
2 2 2 2 3 3 3 3 3 4 4 4 4 4 4 4 4 5 5 5 5 6 6 6 6 6 6 6 6 5 5 6 6 6 6 6 6 6 5 5 5 5 5
2 2 2 3 3 3 3 3 4 4 4 4 3 4 4 4 4 4 5 5 5 6 6 6 6 7 7 7 6 6 6 6 6 6 6 6 6 7 6 6 6 5 5
3 3 3 4 4 3 4 4 4 4 4 3 3 4 4 4 4 4 5 5 5 6 6 6 6 7 6 6 7 6 6 6 6 6 6 6 7 9 8 6 5 5 5
4 4 4 4 4 4 4 4 4 4 3 3 4 4 4 4 4 4 5 5 5 6 6 6 6 6 6 10 12 9 6 6 6 7 6 6 7 9 11 11 10 9 7
5 5 4 4 4 4 4 5 5 3 3 3 4 4 4 4 5 5 5 5 5 6 6 6 6 6 8 12 12 12 8 6 6 6 6 6 6 8 6 9 11 11 13
5 5 4 4 4 3 4 4 3 2 3 3 4 4 4 4 5 5 5 5 5 5 5 6 6 7 8 12 13 13 7 6 6 5 5 6 6 6 7 6 6 7 8
4 4 4 4 3 4 3 2 2 2 3 4 4 4 4 4 5 5 5 5 5 5 5 6 6 6 8 12 13 12 5 5 6 6 6 6 6 10 10 7 7 7 7
3 3 3 2 3 3 2 2 3 3 4 5 5 4 4 4 5 5 5 5 5 6 6 6 6 6 7 11 12 11 5 6 6 5 5 8 8 10 10 6 6 7 7
3 3 2 2 3 3 1 2 3 4 5 5 4 4 4 5 5 5 4 4 5 5 5 6 7 6 8 11 12 12 6 6 6 5 5 5 10 11 11 9 6 9 8
3 2 2 3 3 2 2 3 5 5 4 4 4 4 4 4 4 4 4 4 4 5 5 6 7 6 7 9 10 12 10 9 6 5 5 6 11 11 11 8 9 11 9
3 2 2 4 3 2 2 4 5 4 3 3 4 4 5 4 4 4 4 4 3 4 5 5 6 6 6 7 11 12 12 11 7 6 8 10 11 10 8 9 10 7 4
3 2 2 3 4 3 3 4 4 3 3 3 4 4 4 4 4 4 3 3 3 4 5 5 5 6 6 6 6 6 7 9 8 6 8 9 9 7 7 7 6 4 3
3 2 3 4 5 4 4 5 4 3 3 4 4 4 4 4 4 4 4 5 5 5 5 5 5 6 6 8 10 7 5 4 5 5 3 3 4 4 4 4 4 3 3
3 3 4 5 5 4 5 5 4 3 3 4 4 4 3 3 4 4 5 8 8 10 11 10 9 8 10 13 12 12 11 11 8 4 3 3 3 4 4 4 4 4 3
Wind_Direction
344 32 42 46 46 38 34 29 28 24 26 16 11 8 356 350 1 13 11 5 2 2 14 12 10 14 19 351 21 95 69 34 16 26 351 338 346 21 9 360 13 8 3
23 28 41 45 40 33 26 23 20 19 21 14 356 339 328 334 344 2 7 2 359 357 359 4 352 354 339 0 32 101 95 50 39 59 24 329 329 354 353 356 19 357 359
219 348 29 30 28 21 11 9 7 15 15 17 21 9 14 6 354 349 349 351 350 352 353 344 345 342 328 249 238 190 152 170 200 56 141 172 245 314 316 328 356 346 348
206 173 41 22 15 1 6 11 11 19 19 28 31 23 10 343 323 324 327 343 350 349 351 347 353 342 339 294 261 271 208 172 194 249 285 215 180 204 300 306 319 331 336
194 194 138 4 1 8 16 15 19 21 20 24 25 23 5 337 331 335 335 337 344 347 348 347 352 344 338 326 316 297 254 207 208 208 227 243 351 205 222 276 300 313 299
197 190 32 48 24 17 19 18 20 16 15 17 17 13 357 344 342 340 334 329 330 339 348 346 343 332 327 314 298 278 257 241 230 222 211 205 206 213 217 246 276 284 285
180 178 39 9 7 9 10 13 15 5 3 6 5 358 347 336 328 324 322 325 326 324 330 338 335 328 317 310 305 280 265 252 239 229 229 229 233 226 224 237 265 276 287
192 214 250 281 322 344 357 3 359 350 352 353 349 351 351 341 325 322 320 314 310 309 322 324 325 321 322 321 312 285 270 259 245 246 239 237 239 230 223 224 234 270 277
231 252 284 286 301 327 337 339 338 340 343 343 342 345 346 344 331 327 326 319 318 321 328 324 321 320 317 315 314 283 269 256 245 244 244 241 241 235 232 225 216 226 253
299 298 300 299 302 313 328 344 340 334 333 340 336 337 337 337 333 332 329 326 323 328 330 328 322 316 313 312 300 289 284 265 257 247 244 249 240 233 233 228 230 230 236
274 289 305 316 322 335 337 335 334 336 337 335 329 328 327 332 335 330 325 324 325 331 328 323 322 317 313 311 299 288 286 279 271 263 251 254 247 236 231 232 230 230 230
284 292 300 324 332 328 327 324 324 326 324 323 321 318 321 328 329 324 322 324 328 327 324 324 321 319 318 310 293 287 286 276 274 267 258 256 253 242 233 231 232 231 231
300 310 320 315 310 313 315 314 315 315 320 324 324 323 322 322 319 320 324 331 333 331 330 330 323 319 316 309 299 284 279 272 267 267 263 261 253 249 244 235 235 233 237
293 306 311 307 308 310 313 312 313 316 321 326 327 323 320 320 321 325 330 332 333 329 328 328 322 318 314 308 306 300 288 278 273 269 264 261 253 248 243 240 236 233 233
301 295 294 296 303 311 315 315 313 317 321 324 321 315 320 325 328 329 330 330 331 327 324 323 321 320 314 309 310 302 297 289 281 275 267 262 260 259 252 248 236 230 230
279 290 293 294 297 301 307 312 308 309 315 312 309 318 326 327 328 326 328 329 328 325 324 321 318 317 314 317 317 313 302 295 288 284 276 267 264 266 265 261 254 244 238
272 281 284 281 286 291 296 295 295 303 308 307 311 319 323 322 322 323 328 325 322 323 321 318 317 312 311 317 318 316 312 299 290 284 276 275 273 275 266 265 261 257 256
268 279 284 290 292 292 297 296 300 302 304 306 308 313 316 315 318 321 319 316 315 314 314 313 312 310 312 319 320 319 315 303 297 290 277 272 269 266 264 261 261 256 255
260 266 268 273 284 288 292 295 300 304 307 302 300 303 306 306 311 311 309 308 308 308 308 307 311 310 312 319 320 321 312 306 305 299 293 285 276 275 274 266 263 268 266
270 274 283 281 281 284 288 284 292 300 292 290 292 295 296 293 293 295 298 299 299 301 307 310 312 308 307 315 320 322 312 307 306 301 296 294 295 293 289 271 262 267 270
280 281 279 279 274 276 259 273 285 280 282 291 293 294 292 287 284 290 293 297 300 306 309 309 309 309 310 315 318 320 315 307 303 303 304 302 306 303 297 289 270 270 274
296 286 280 285 284 262 235 267 275 278 289 290 290 291 291 291 295 290 294 297 299 304 307 310 313 312 311 315 317 319 318 316 303 300 301 300 305 307 305 300 292 287 282
283 280 266 286 291 266 233 257 276 286 289 290 289 289 292 290 291 285 288 295 296 298 302 305 309 312 314 314 316 317 317 316 312 302 303 307 310 312 312 311 309 304 291
287 284 280 287 291 285 269 259 277 281 277 284 290 290 289 291 290 288 283 283 282 285 292 297 300 304 309 312 314 313 315 316 313 311 310 315 319 321 320 318 320 314 295
291 280 270 273 278 282 277 281 284 275 276 282 286 288 287 286 291 290 278 276 267 269 278 281 283 293 298 303 310 313 310 310 308 318 323 327 322 320 321 321 322 321 314
283 284 278 277 281 284 284 285 281 268 268 286 290 287 286 287 289 294 298 295 291 293 291 290 289 288 291 301 307 311 311 312 317 317 310 311 311 308 309 309 310 311 310
Height
1517 1517 1517 1518 1518 1518 1519 1519 1519 1519 1519 1519 1519 1519 1519 1519 1519 1518 1518 1518 1518 1518 1518 1518 1518 1519 1519 1519 1519 1520 1521 1521 1522 1522 1522 1523 1524 1524 1524 1525 1526 1527 1528
1514 1515 1516 1516 1516 1516 1517 1517 1517 1517 1517 1516 1516 1516 1516 1516 1516 1516 1515 1515 1515 1515 1515 1515 1515 1515 1516 1516 1516 1517 1517 1518 1519 1520 1520 1520 1521 1520 1521 1522 1522 1524 1525
1512 1513 1514 1514 1514 1514 1515 1515 1515 1514 1514 1514 1514 1514 1513 1513 1513 1513 1512 1512 1512 1512 1511 1512 1512 1512 1512 1512 1513 1513 1514 1514 1516 1517 1518 1518 1517 1517 1518 1518 1519 1520 1521
1510 1511 1511 1512 1512 1513 1513 1513 1512 1512 1512 1512 1511 1511 1510 1510 1510 1509 1509 1509 1509 1508 1508 1508 1508 1508 1508 1509 1509 1510 1510 1511 1512 1514 1515 1516 1515 1516 1515 1516 1516 1517 1518
1508 1509 1509 1510 1511 1511 1511 1511 1511 1510 1510 1510 1509 1509 1508 1507 1507 1506 1505 1505 1505 1505 1504 1504 1504 1504 1505 1505 1506 1506 1507 1507 1508 1509 1510 1511 1512 1513 1513 1512 1513 1514 1514
1506 1507 1508 1509 1509 1509 1509 1509 1508 1508 1508 1507 1507 1506 1505 1504 1504 1503 1502 1502 1501 1501 1501 1501 1500 1501 1501 1501 1502 1502 1503 1504 1504 1505 1506 1507 1508 1508 1509 1509 1509 1509 1510
1505 1505 1506 1506 1506 1506 1506 1506 1506 1506 1506 1505 1504 1503 1503 1502 1501 1500 1499 1498 1497 1497 1497 1497 1497 1497 1497 1497 1498 1498 1499 1500 1501 1501 1502 1503 1504 1505 1506 1506 1506 1506 1506
1503 1503 1504 1504 1504 1505 1504 1504 1504 1503 1503 1502 1502 1501 1500 1498 1497 1496 1495 1494 1494 1493 1493 1493 1493 1493 1493 1493 1493 1494 1495 1495 1496 1497 1498 1499 1500 1501 1501 1502 1503 1503 1502
1501 1502 1503 1503 1503 1502 1502 1502 1501 1501 1500 1499 1499 1497 1496 1495 1494 1493 1492 1491 1490 1489 1489 1489 1489 1489 1489 1489 1489 1490 1490 1491 1492 1492 1493 1494 1495 1496 1497 1498 1499 1500 1499
1500 1500 1501 1501 1501 1501 1500 1500 1499 1498 1497 1496 1495 1494 1493 1492 1491 1489 1488 1487 1487 1486 1485 1485 1484 1484 1485 1485 1485 1486 1486 1486 1487 1488 1488 1489 1490 1491 1492 1493 1494 1495 1495
1498 1498 1499 1499 1499 1498 1498 1497 1496 1495 1494 1493 1492 1491 1490 1489 1487 1486 1485 1484 1483 1482 1482 1481 1480 1480 1480 1480 1480 1481 1481 1482 1482 1483 1483 1484 1485 1486 1486 1487 1488 1489 1489
1497 1497 1496 1496 1496 1496 1495 1494 1493 1492 1491 1490 1488 1487 1486 1485 1484 1483 1482 1481 1480 1479 1478 1477 1477 1476 1476 1476 1476 1476 1476 1477 1477 1478 1478 1479 1480 1481 1481 1482 1482 1483 1484
1495 1494 1494 1494 1493 1493 1492 1491 1490 1489 1488 1486 1485 1484 1483 1482 1481 1480 1479 1478 1476 1475 1475 1474 1473 1472 1472 1472 1471 1471 1471 1471 1472 1472 1473 1473 1474 1474 1475 1476 1477 1477 1478
1493 1492 1492 1491 1491 1490 1489 1488 1487 1486 1485 1483 1482 1481 1480 1479 1478 1477 1476 1474 1473 1472 1471 1470 1469 1469 1468 1468 1467 1467 1466 1466 1466 1466 1467 1467 1468 1469 1469 1470 1471 1471 1472
1490 1490 1489 1489 1488 1487 1486 1485 1484 1483 1482 1481 1480 1479 1478 1477 1475 1474 1473 1471 1470 1469 1468 1467 1466 1465 1464 1463 1463 1462 1462 1461 1461 1461 1461 1461 1462 1463 1464 1464 1465 1466 1466
1488 1487 1487 1486 1485 1484 1483 1482 1481 1480 1479 1478 1477 1476 1475 1474 1472 1471 1470 1468 1467 1466 1465 1464 1462 1461 1460 1459 1459 1458 1457 1456 1455 1455 1455 1455 1456 1456 1457 1458 1459 1460 1460
1485 1485 1484 1483 1483 1482 1481 1479 1479 1478 1477 1475 1474 1473 1472 1471 1469 1468 1467 1465 1464 1463 1461 1460 1459 1458 1457 1456 1454 1454 1452 1451 1450 1449 1449 1449 1449 1450 1451 1451 1452 1453 1454
1482 1482 1481 1480 1480 1479 1478 1477 1476 1475 1474 1472 1471 1470 1469 1467 1466 1465 1463 1462 1461 1459 1458 1457 1455 1454 1453 1452 1450 1449 1448 1446 1445 1444 1444 1444 1444 1444 1445 1445 1445 1445 1446
1480 1479 1479 1478 1477 1476 1475 1474 1473 1472 1470 1469 1468 1467 1466 1464 1463 1462 1460 1459 1457 1456 1454 1453 1452 1450 1449 1448 1447 1445 1443 1442 1440 1440 1439 1439 1439 1439 1440 1440 1439 1439 1439
1477 1476 1476 1475 1474 1473 1472 1471 1470 1469 1467 1466 1465 1464 1462 1461 1459 1458 1457 1456 1454 1452 1451 1449 1448 1446 1445 1444 1443 1442 1439 1438 1436 1435 1434 1434 1434 1434 1434 1434 1433 1433 1433
1475 1474 1473 1472 1471 1470 1469 1468 1467 1466 1465 1463 1462 1461 1459 1458 1456 1455 1454 1452 1450 1449 1447 1445 1444 1443 1441 1440 1439 1438 1437 1435 1433 1431 1430 1430 1430 1429 1429 1429 1428 1428 1428
1472 1471 1470 1469 1468 1467 1466 1464 1463 1463 1461 1460 1459 1457 1456 1455 1453 1452 1450 1449 1447 1445 1443 1441 1440 1439 1438 1436 1435 1434 1433 1432 1430 1428 1427 1426 1425 1424 1424 1423 1423 1423 1423
1469 1468 1467 1466 1465 1464 1463 1461 1461 1459 1458 1457 1455 1454 1453 1451 1450 1448 1446 1445 1443 1441 1439 1438 1436 1435 1434 1433 1432 1430 1429 1428 1427 1425 1423 1422 1421 1420 1419 1418 1418 1418 1418
1466 1465 1464 1463 1462 1461 1460 1459 1457 1456 1454 1453 1452 1451 1449 1447 1446 1444 1443 1441 1439 1438 1436 1434 1433 1431 1430 1429 1428 1427 1426 1424 1423 1421 1420 1419 1417 1416 1415 1415 1414 1413 1413
1463 1462 1461 1460 1459 1458 1457 1455 1454 1452 1451 1450 1448 1447 1445 1444 1442 1441 1439 1437 1436 1435 1433 1432 1430 1429 1427 1426 1426 1424 1422 1421 1419 1418 1416 1414 1413 1412 1412 1411 1410 1410 1410
1460 1459 1458 1457 1455 1454 1453 1452 1451 1449 1448 1446 1445 1443 1442 1440 1438 1437 1435 1434 1433 1431 1430 1429 1428 1426 1425 1424 1422 1421 1419 1418 1416 1415 1412 1411 1410 1409 1408 1407 1407 1406 1406